Location: Home
(42.5358°N, 72.7383°W)
Time: 17:46:30
(UTC-05:00)

A-11 Canister half - Pass Details

Date: 01 December 2021
Orbit: 1516 x 1684 km, 47.2° (Epoch: 18 January)

Event Time Altitude Azimuth Distance (km) Brightness Sun altitude
Rises 07:13:11 0° 227° (SW) 4,750 11.4 1.0°
Reaches altitude 10° 07:16:14 10° 224° (SW) 3,790 11.0 1.5°
Maximum altitude 07:25:47 66° 145° (SE) 1,754 9.8 3.0°
Drops below altitude 10° 07:35:40 10° 66° (ENE) 3,924 11.6 4.5°
Sets 07:38:53 0° 64° (ENE) 4,926 12.1 5.0°
